Погода в Танхое

Россия / Республика Бурятия     51°33′16″N   105°07′05″E
темп.,
°C
ветер,
м/с
пор.,
м/с
влажн.,
%
обл.,
%
осадки,
мм/ч
давл.,
гПа
погр.,
м
26 февраля, пт
пт2623:00−8всв4688100 0.0 1011141
02:00−12ю2296100 0.1 101527
05:00−11зюз4795100 0.6 1018508
08:00−12ююз2395100 1.1 102081
11:00−10зсз4594100 1.2 1021627
14:00−11з4591100 2.4 1018891
17:00−12сз4690100 0.8 1019671
20:00−15зсз4795100 1.8 1023867
27 февраля, сб
сб2723:00−17з5897100 1.1 1027846
02:00−17з3795100 2.0 1031608
05:00−18з2298100 0.5 103592
08:00−20з1199100 0.7 103728
11:00−19зсз3393100 0.1 1037395
14:00−17ссз218798 0.2 1035377
17:00−17ссв118789 0.0 1034149
20:00−20ююв128878 0.0 103821
28 февраля, вс
вс2823:00−20ю1184100 0.0 103923
02:00−21ююв1185100 0.0 104020
05:00−22ююв128230 0.0 104121
08:00−23юв118415 0.0 104222
11:00−18ссв11900 0.0 1041189
14:00−15с228819 0.0 1038278
17:00−16св119257 0.0 1037116
20:00−19ююв228778 0.0 104020
1 марта, пн
пн123:00−20ююв22752 0.0 104121
02:00−20юв12821 0.0 104122
05:00−22ююв11820 0.0 104021
08:00−21ююв11780 0.0 104021
11:00−16ссв11850 0.0 1037240
14:00−13ссв22871 0.0 1033290
17:00−13св229071 0.0 1030168
20:00−16юв227859 0.0 103027
2 марта, вт
вт223:00−16юв22794 0.0 102831
02:00−16вюв228138 0.0 102557
05:00−17в128372 0.0 102361
08:00−17всв128579 0.0 102347
11:00−12св228964 0.0 1020111
14:00−10св339380 0.0 1017142
17:00−9св2293100 0.0 101596
20:00−11всв2392100 0.0 101666